Terminal Aerodrome Forecast
Issued by NWS Green Bay, WI

Home | Current Version | Previous Version | Text Only | Print | Product List | Glossary Off
Versions: 1 2 3 4 5 6 7 8 9 10 11 12 13 14 15 16 17 18 19 20 21 22 23 24 25 26 27 28 29 30 31 32 33 34 35 36

000
FTUS43 KGRB 252300
TAFGRB
TAF
KGRB 252335Z 2600/2624 20011KT P6SM SCT025 BKN040
      TEMPO 2600/2602 BKN025
     FM260200 19007KT P6SM SCT015 BKN025
     FM260500 23004KT 5SM BR BKN018 BKN030
     FM261400 28008KT P6SM BKN035=

USA.gov is the U.S. government's official web portal to all federal, state and local government web resources and services.